Location: Brown Observing Site
(43.4354°N, 116.3366°W)
Time: 02:40:32
(UTC-06:00)

Envisat - Pass Details

Date: 01 October 2020
Orbit: 764 x 766 km, 98.1° (Epoch: 23 October)

Event Time Altitude Azimuth Distance (km) Brightness Sun altitude
Rises 07:06:41 0° 22° (NNE) 3,239 6.6 -7.5°
Reaches altitude 10° 07:09:14 10° 32° (NNE) 2,308 6.0 -7.1°
Maximum altitude 07:13:47 33° 96° (E) 1,273 5.1 -6.2°
Drops below altitude 10° 07:18:19 10° 160° (SSE) 2,292 5.8 -5.4°
Sets 07:20:49 0° 169° (S) 3,213 6.4 -5.0°
